User: anonymous   Login
Location: Unspecified
(0.0000°N, 0.0000°E)
Time: 23:48:33
(UTC+00:00)
Language:

Optus B3 - Orbit

View from above orbital plane
View from above orbital plane
View from above satellite
View from above satellite

Ground track
Ground track

The orbit data is extracted from the following two-line orbital elements,

1 23227U 94055A   16119.09031506  .00000000  00000-0  10000-3 0  9995
2 23227   6.7360  53.3254 0004078 335.4826  24.4099  1.00269488 79318
Epoch (UTC): 28 April 2016 02:10:03
Eccentricity: 0.0004078
inclination: 6.7360°
perigee height: 35769 km
apogee height: 35804 km
right ascension of ascending node: 53.3254°
argument of perigee: 335.4826°
revolutions per day: 1.00269488
mean anomaly at epoch: 24.4099°
orbit number at epoch: 7931

The dashed part of the orbit path shows where the satellite is in the earth's shadow,  

DLR